This is the latest recevied weather packets stored in our database for station/object N8SDR. If no packets are shown the sender has not sent any weather packets the latest 10 day(s).
| Time | Temp. | Humidity | Pressure | Rain* | Wind** | Luminosity | Snow |
|---|---|---|---|---|---|---|---|
| 1777886859 | 10.56° C | 75% | 1006.4 hPa | 0 mm | - | 0 W/m² | - |
| 1777886554 | 10.56° C | 74% | 1006.2 hPa | 0 mm | - | 0 W/m² | - |
| 1777886253 | 10.56° C | 75% | 1006.2 hPa | 0 mm | - | 0 W/m² | - |
| 1777885950 | 10.56° C | 76% | 1006.5 hPa | 0 mm | - | 0 W/m² | - |
| 1777885649 | 10.56° C | 75% | 1006.6 hPa | 0 mm | - | 0 W/m² | - |
| 1777885346 | 10.56° C | 75% | 1006.4 hPa | 0 mm | - | 0 W/m² | - |
| 1777885045 | 10° C | 76% | 1006.2 hPa | 0 mm | - | 0 W/m² | - |
| 1777884740 | 10.56° C | 75% | 1006.7 hPa | 0 mm | - | 0 W/m² | - |
| 1777884437 | 10.56° C | 75% | 1006.6 hPa | 0 mm | - | 0 W/m² | - |
| 1777884134 | 10.56° C | 74% | 1006.7 hPa | 0 mm | - | 0 W/m² | - |
| 1777883831 | 11.11° C | 72% | 1006.9 hPa | 0 mm | - | 0 W/m² | - |
| 1777883528 | 11.67° C | 70% | 1006.9 hPa | 0 mm | - | 0 W/m² | - |
| 1777883223 | 11.67° C | 69% | 1006.7 hPa | 0 mm | - | 0 W/m² | - |
| 1777882920 | 12.22° C | 68% | 1006.6 hPa | 0 mm | - | 0 W/m² | - |
| 1777882617 | 12.22° C | 67% | 1006.8 hPa | 0 mm | - | 0 W/m² | - |
| 1777882313 | 12.22° C | 66% | 1006.6 hPa | 0 mm | - | 0 W/m² | - |
| 1777882009 | 12.78° C | 66% | 1006.8 hPa | 0 mm | - | 0 W/m² | - |
| 1777881706 | 12.78° C | 66% | 1006.7 hPa | 0 mm | - | 0 W/m² | - |
| 1777881403 | 12.78° C | 64% | 1006.9 hPa | 0 mm | - | 0 W/m² | - |
| 1777881100 | 12.22° C | 66% | 1006.9 hPa | 0 mm | - | 0 W/m² | - |
| 1777880798 | 12.22° C | 67% | 1006.9 hPa | 0 mm | - | 0 W/m² | - |
| 1777880496 | 12.22° C | 67% | 1006.8 hPa | 0 mm | - | 0 W/m² | - |
| 1777880194 | 12.22° C | 67% | 1006.9 hPa | 0 mm | - | 0 W/m² | - |
| 1777879892 | 11.67° C | 68% | 1007.1 hPa | 0 mm | - | 0 W/m² | - |
| 1777879590 | 12.22° C | 67% | 1007.1 hPa | 0 mm | - | 0 W/m² | - |
* Rain latest hour (hover to see other rain measurements)
** Current wind speed in m/s (hover to see current wind gust speed)